Content
SEND FEEDBACK

Daily
Averages
Monthly
Summary
Russia

YAKUTSK, RUSSIA


Home > Europe > Russia
Elevation: 338 feet     Latitude: 62 05N     Longitude: 129 45E

WEATHER
 
SELECT A DAY
Number of Records: 188,425;   Date Range: 1/30/98 - 7/22/14
 
SHARE

PRINT THIS DATA

[ ← Previous Day ]
WEATHER ALMANAC - FEBRUARY 13, 2013
[ Next Day → ]
[ °C ]   °F
Weather ElementAverageHighLow
Temperature-33.8 °F-26 °F (4:00 pm)-45.4 °F (11:30 pm)
Dewpoint-41.4 °F-32 °F (4:00 am)-54.4 °F (11:30 pm)
Humidity65.4 %75 % (12:30 am)45 % (11:30 am)
Barometer30.07 in30.30 in (10:00 pm)29.92 in (12:30 am)
Wind Speed5.5 mph8.9 mph (5:30 am)
Weather ElementAverage
Visibility7.7 mi
Wind DirectionSW (220.4 °)

Weather ElementTotal
Precipitation---
Heating Degree Days100.7 (Base 65)
Averaged from 51 records on February 13, 2013
WEATHER CONDITIONS BREAKOUT
WIND DIRECTION BREAKOUT
WEATHER BY HOUR - FEBRUARY 13, 2013
[ °C ]   °F
Local TimeTemperatureDewpointHumidityBarometerVisibilityWind DirectionWind SpeedGust SpeedPrecipitationEventsConditions
12:30 AM-29.2 °F-34.6 °F75 %29.92 in6.2 miWNW (300°)4.5 mphSnowLight Snow
1:00 AM-29.2 °F-34.6 °F75 %29.92 in6.2 miWest (280°)6.7 mphSnowLight Snow
1:30 AM-29.2 °F-36.4 °F68 %29.92 in6.2 miWest (270°)4.5 mphSnowLight Snow
2:00 AM-29.2 °F-36.4 °F68 %29.92 in6.2 miWest (280°)4.5 mphSnowLight Snow
2:30 AM-29.2 °F-36.4 °F68 %29.92 in6.2 miWest (260°)4.5 mphSnowLight Snow
3:00 AM-29.2 °F-36.4 °F68 %29.95 in6.2 miWest (260°)4.5 mphSnowLight Snow
3:30 AM-29.2 °F-34.6 °F75 %29.95 in6.2 miWSW (250°)4.5 mphSnowLight Snow
4:00 AM-27.0 °F-32.0 °F61 %30.06 in12.0 miWest (270°)4.5 mphSnowLight Snow
4:00 AM-27.4 °F-34.6 °F69 %29.95 in6.2 miWest (260°)4.5 mphSnowLight Snow
4:30 AM-29.2 °F-38.2 °F62 %29.95 in6.2 miWSW (250°)6.7 mphSnowLight Snow
5:00 AM-31.0 °F-38.2 °F68 %29.95 in6.2 miWSW (250°)6.7 mphSnowLight Snow
5:30 AM-32.8 °F-40.0 °F68 %29.95 in6.2 miWest (260°)8.9 mphSnowLight Snow
6:00 AM-32.8 °F-40.0 °F68 %29.98 in6.2 miWest (260°)6.7 mphSnowLight Snow
6:30 AM-34.6 °F-41.8 °F68 %29.98 in6.2 miWSW (250°)6.7 mphSnowLight Snow
7:00 AM-36.4 °F-43.6 °F67 %29.98 in6.2 miWSW (240°)6.7 mphSnowLight Snow
7:30 AM-36.4 °F-43.6 °F67 %30.01 in6.2 miWSW (250°)6.7 mphSnowLight Snow
8:00 AM-36.4 °F-43.6 °F67 %30.01 in6.2 miSW (230°)6.7 mphSnowLight Snow
8:30 AM-36.4 °F-43.6 °F67 %30.01 in6.2 miWSW (240°)6.7 mphSnowLight Snow
9:00 AM-36.4 °F-43.6 °F67 %30.01 in6.2 miWSW (240°)8.9 mphSnowLight Snow
9:30 AM-36.4 °F-43.6 °F67 %30.04 in6.2 miWSW (240°)8.9 mphSnowLight Snow
10:00 AM-35.0 °F-41.0 °F54 %30.14 in31.0 miSW (230°)4.5 mphPartly Cloudy
10:00 AM-36.4 °F-45.4 °F61 %30.04 inWSW (250°)8.9 mphClear
10:30 AM-36.4 °F-45.4 °F61 %30.04 inWSW (240°)8.9 mphClear
11:00 AM-36.4 °F-45.4 °F61 %30.06 inWSW (240°)8.9 mphClear
11:30 AM-36.4 °F-50.8 °F45 %30.06 inWSW (250°)8.9 mphClear
12:00 PM-36.4 °F-45.4 °F61 %30.06 inWSW (240°)6.7 mphClear
12:30 PM-34.6 °F-43.6 °F61 %30.06 inSW (230°)6.7 mphClear
1:00 PM-32.8 °F-43.6 °F56 %30.09 inSW (220°)4.5 mphClear
1:30 PM-32.8 °F-41.8 °F62 %30.09 inSW (230°)4.5 mphClear
2:00 PM-31.0 °F-40.0 °F62 %30.09 inSSW (200°)4.5 mphClear
2:30 PM-29.2 °F-38.2 °F62 %30.09 inSW (230°)6.7 mphClear
3:00 PM-31.0 °F-38.2 °F68 %30.09 in3.1 miSouth (180°)4.5 mphSnowLight Snow
3:30 PM-31.0 °F-38.2 °F68 %30.12 in3.1 miSouth (170°)4.5 mphSnowLight Snow
4:00 PM-26.0 °F-34.0 °F48 %30.21 in12.0 miWSW (240°)6.7 mphSnowLight Snow
4:00 PM-31.0 °F-38.2 °F68 %30.12 in3.1 miSouth (170°)6.7 mphSnowLight Snow
4:30 PM-31.0 °F-38.2 °F68 %30.12 inSouth (170°)4.5 mphClear
5:00 PM-31.0 °F-38.2 °F68 %30.12 inSouth (170°)4.5 mphClear
5:30 PM-31.0 °F-40.0 °F62 %30.15 inSouth (170°)4.5 mphClear
6:00 PM-32.8 °F-40.0 °F68 %30.15 inSouth (170°)4.5 mphClear
6:30 PM-34.6 °F-40.0 °F75 %30.15 inSouth (180°)4.5 mphClear
7:00 PM-34.6 °F-41.8 °F68 %30.18 inSouth (190°)4.5 mphClear
7:30 PM-34.6 °F-40.0 °F75 %30.18 inSSW (200°)4.5 mphClear
8:00 PM-36.4 °F-43.6 °F67 %30.18 inSW (220°)6.7 mphClear
8:30 PM-38.2 °F-43.6 °F74 %30.18 inSW (220°)6.7 mphClear
9:00 PM-38.2 °F-45.4 °F67 %30.21 inSouth (180°)2.2 mphClear
9:30 PM-40.0 °F-47.2 °F67 %30.21 inSSW (200°)2.2 mphClear
10:00 PM-35.0 °F-40.0 °F61 %30.30 in31.0 miWSW (250°)2.2 mphPartly Cloudy
10:00 PM-41.8 °F-49.0 °F67 %30.21 inCalmClear
10:30 PM-43.6 °F-52.6 °F60 %30.21 inSSE (150°)2.2 mphClear
11:00 PM-43.6 °F-50.8 °F67 %30.21 in1.2 miSSE (160°)4.5 mphMostly Cloudy
11:30 PM-45.4 °F-54.4 °F60 %30.21 in0.5 miSSE (150°)4.5 mphFogFog
Hourly data recorded from UEEE, located miles away from Yakutsk, Russia







STORIES FROM OUR PARTNERS